Home   Weather   Germany   Berlin   Past weeks
Flag for Germany

Past Weather in Berlin, Germany — February 2019

Currently: 41 °F. Passing clouds. (Weather station: Berlin-Schoenefeld, Germany). See more current weather

February 2019 Weather in Berlin — Graph

°F

High & Low Weather Summary for February 2019

 TemperatureHumidityPressure
High61 °F (Feb 27, 2:20 pm)100% (Feb 1, 3:50 am)30.89 "Hg (Feb 1, 3:50 am)
Low23 °F (Feb 23, 6:20 am)26% (Feb 24, 2:50 pm)29.21 "Hg (Feb 10, 7:20 pm)
Average40 °F76%30.15 "Hg
* Reported Feb 1 12:20 am — Feb 28 11:50 pm, Berlin. Weather by CustomWeather, © 2022

Note: Actual official high and low records may vary slightly from our data, if they occured in-between our weather recording intervals... More about our weather records

Berlin Weather History for February 1, 2019

Scroll right to see more
 ConditionsComfort  
Time TempWeatherWind HumidityBarometerVisibility
12:20 am
Fri, Feb 1
28 °FClear.8 mph86%29.50 "Hg6 mi
12:50 am28 °FClear.9 mph86%29.50 "Hg6 mi
1:50 am27 °FClear.9 mph93%29.50 "Hg6 mi
2:20 am27 °FClear.8 mph93%29.47 "Hg5 mi
2:50 am27 °FClear.6 mph93%29.47 "Hg5 mi
3:20 am25 °FClear.7 mph93%29.47 "Hg5 mi
3:50 am25 °FClear.6 mph100%29.47 "Hg4 mi
4:20 am25 °FClear.7 mph93%29.47 "Hg4 mi
4:50 am25 °FClear.9 mph100%29.47 "Hg4 mi
5:20 am25 °FClear.6 mph93%29.47 "Hg4 mi
5:50 am25 °FClear.7 mph93%29.45 "Hg4 mi
6:20 am25 °FClear.9 mph93%29.45 "Hg4 mi
7:20 am27 °FIce fog.10 mph93%29.45 "Hg3 mi
7:50 am27 °FClear.12 mph93%29.45 "Hg3 mi
8:20 am27 °FClear.9 mph93%29.45 "Hg4 mi
8:50 am28 °FClear.12 mph86%29.45 "Hg4 mi
9:20 am28 °FClear.13 mph86%29.42 "Hg4 mi
9:50 am28 °FClear.10 mph93%29.42 "Hg5 mi
10:20 am30 °FClear.10 mph86%29.42 "Hg5 mi
10:50 am30 °FClear.10 mph86%29.42 "Hg5 mi
11:20 am32 °FPassing clouds.8 mph80%29.45 "Hg6 mi
11:50 am32 °FPartly sunny.13 mph80%29.42 "HgN/A
12:20 pm34 °FScattered clouds.10 mph75%29.42 "HgN/A
12:50 pm34 °FSunny.12 mph81%29.42 "Hg10 mi
1:20 pm34 °FSunny.13 mph75%29.42 "Hg10 mi
1:50 pm34 °FPartly sunny.12 mph75%29.42 "HgN/A
2:20 pm36 °FPartly sunny.10 mph75%29.42 "HgN/A
2:50 pm36 °FOvercast.10 mph75%29.39 "HgN/A
3:20 pm36 °FPartly sunny.9 mph75%29.39 "HgN/A
3:50 pm36 °FPartly sunny.9 mph75%29.39 "HgN/A
4:20 pm36 °FPartly sunny.8 mph75%29.39 "HgN/A
4:50 pm36 °FPartly sunny.8 mph75%29.42 "HgN/A
5:20 pm36 °FPassing clouds.8 mph75%29.39 "HgN/A
5:50 pm34 °FPassing clouds.9 mph81%29.39 "HgN/A
6:20 pm34 °FClear.8 mph81%29.39 "Hg10 mi
6:50 pm34 °FClear.8 mph81%29.39 "Hg10 mi
7:20 pm32 °FClear.8 mph87%29.36 "Hg10 mi
7:50 pm32 °FClear.5 mph87%29.39 "Hg10 mi
8:20 pm32 °FClear.7 mph87%29.39 "Hg10 mi
8:50 pm32 °FClear.8 mph87%29.39 "Hg10 mi
9:20 pm32 °FClear.6 mph87%29.39 "Hg10 mi
9:50 pm32 °FClear.5 mph87%29.39 "Hg10 mi
10:20 pm32 °FClear.7 mph87%29.39 "Hg10 mi
10:50 pm32 °FClear.7 mph87%29.39 "Hg10 mi
11:20 pm34 °FClear.7 mph81%29.36 "Hg10 mi
11:50 pm34 °FLight snow. Passing clouds.9 mph81%29.36 "HgN/A
Weather by CustomWeather, © 2022

See weather overview